Location: Lourdes
(43.1000°N, 0.0500°W)
Time: 13:11:21
(UTC+00:00)

Cosmos 44 Rocket - Pass Details

Date: 30 November 2020
Orbit: 638 x 751 km, 65.1° (Epoch: 25 January)

Event Time Altitude Azimuth Distance (km) Brightness Sun altitude
Rises 18:35:15 0° 329° (NNW) 3,171 7.0 -22.9°
Reaches altitude 10° 18:37:39 10° 333° (NNW) 2,257 6.1 -23.3°
Enters shadow 18:42:12 54° 25° (NNE) 905 3.6 -24.2°
